OK2ARM-12 Weather Reports


Display with metric or nautical units.
time (UTC)temp
F
wind
direction
speed
MPH
gust
MPH
rain 1hr
in
rain 24hr
in
rain mn
in
humidity
%
barometer
mb
20260509055839 48 0.0 0.0 0.00 0.00 0.00 81 1019.9
20260509054840 47 0.0 0.0 0.00 0.00 0.00 81 1019.8
20260509053839 47 0.0 0.0 0.00 0.00 0.00 82 1019.7
20260509052839 46 0.0 0.0 0.00 0.00 0.00 83 1019.6
20260509051840 46 0.0 0.0 0.00 0.00 0.00 86 1019.5
20260509050839 45 0.0 0.0 0.00 0.00 0.00 88 1019.5
20260509045839 45 0.0 0.0 0.00 0.00 0.00 88 1019.5
20260509044839 44 0.0 0.0 0.00 0.00 0.00 90 1019.4
20260509043839 44 0.0 0.0 0.00 0.00 0.00 90 1019.3
20260509041615 44 0.0 0.0 0.00 0.00 0.00 91 1019.2
20260509040615 44 0.0 0.0 0.00 0.00 0.00 92 1019.2
20260509035615 44 0.0 0.0 0.00 0.00 0.00 92 1019.2
20260509034615 43 0.0 0.0 0.00 0.00 0.00 92 1019.2
20260509033615 43 0.0 0.0 0.00 0.00 0.00 93 1019.2
20260509032615 43 0.0 0.0 0.00 0.00 0.00 93 1019.1
20260509031616 43 0.0 0.0 0.00 0.00 0.00 93 1019.1
20260509030615 43 0.0 0.0 0.00 0.00 0.00 93 1019.2
20260509025615 43 0.0 0.0 0.00 0.00 0.00 93 1019.2
20260509024615 43 0.0 0.0 0.00 0.00 0.00 93 1019.2
20260509023615 44 0.0 0.0 0.00 0.00 0.00 93 1019.3
20260509022615 44 0.0 0.0 0.00 0.00 0.00 93 1019.3
20260509020351 44 0.0 0.0 0.00 0.00 0.00 92 1019.3
20260509015352 44 0.0 0.0 0.00 0.00 0.00 91 1019.4
20260509014352 44 0.0 0.0 0.00 0.00 0.00 91 1019.4
20260509013351 45 0.0 0.0 0.00 0.00 0.00 91 1019.4
20260509011128 44 0.0 0.0 0.00 0.00 0.00 92 1019.4
20260509010128 44 0.0 0.0 0.00 0.00 0.00 93 1019.3
20260509003904 45 0.0 0.0 0.00 0.00 0.00 93 1019.3
20260509002905 45 0.0 0.0 0.00 0.00 0.00 93 1019.4
20260509001905 45 0.0 0.0 0.00 0.00 0.00 92 1019.5
20260509000904 45 0.0 0.0 0.00 0.00 0.00 92 1019.6
20260508235904 45 0.0 0.0 0.00 0.00 0.00 91 1019.7
20260508233640 45 0.0 0.0 0.00 0.00 0.00 91 1019.7
20260508232641 45 0.0 0.0 0.00 0.00 0.00 91 1019.8
20260508231640 45 0.0 0.0 0.00 0.00 0.00 92 1019.9
20260508230641 45 0.0 0.0 0.00 0.00 0.00 92 1019.9
20260508224416 45 0.0 0.0 0.00 0.00 0.00 92 1019.9
20260508223416 45 0.0 0.0 0.00 0.00 0.00 92 1019.9
20260508222416 45 0.0 0.0 0.00 0.00 0.00 92 1019.9
20260508221416 44 0.0 0.0 0.00 0.00 0.00 92 1019.8
20260508220417 44 0.0 0.0 0.00 0.00 0.00 91 1019.8
20260508215416 45 0.0 0.0 0.00 0.00 0.00 90 1019.7
20260508214417 45 0.0 0.0 0.00 0.00 0.00 88 1019.6
20260508212152 46 0.0 0.0 0.00 0.00 0.00 87 1019.4
20260508211152 46 0.0 0.0 0.00 0.00 0.00 87 1019.3
20260508210152 47 0.0 0.0 0.00 0.00 0.00 86 1019.3
20260508205152 47 0.0 0.0 0.00 0.00 0.00 85 1019.2
20260508204152 47 0.0 0.0 0.00 0.00 0.00 85 1019.2
20260508203152 47 0.0 0.0 0.00 0.00 0.00 85 1019.1
20260508202152 47 0.0 0.0 0.00 0.00 0.00 84 1019.0
20260508201152 47 0.0 0.0 0.00 0.00 0.00 83 1018.9
20260508200153 48 0.0 0.0 0.00 0.00 0.00 80 1018.9
20260508195152 48 0.0 0.0 0.00 0.00 0.00 79 1018.8
20260508194152 48 0.0 0.0 0.00 0.00 0.00 78 1018.8
20260508193153 48 0.0 0.0 0.00 0.00 0.00 77 1018.7
20260508192152 49 0.0 0.0 0.00 0.00 0.00 76 1018.7
20260508185928 49 0.0 0.0 0.00 0.00 0.00 74 1018.4
20260508184928 49 0.0 0.0 0.00 0.00 0.00 74 1018.2
20260508183928 50 0.0 0.0 0.00 0.00 0.00 73 1018.1
20260508182928 50 0.0 0.0 0.00 0.00 0.00 71 1018.0
20260508181929 51 0.0 0.0 0.00 0.00 0.00 69 1017.8
20260508180928 51 0.0 0.0 0.00 0.00 0.00 67 1017.7
20260508175928 52 0.0 0.0 0.00 0.00 0.00 64 1017.6
20260508174928 53 0.0 0.0 0.00 0.00 0.00 62 1017.6
20260508173928 54 0.0 0.0 0.00 0.00 0.00 59 1017.6
20260508172928 55 0.0 0.0 0.00 0.00 0.00 57 1017.6
20260508171928 56 0.0 0.0 0.00 0.00 0.00 57 1017.4
20260508170928 56 0.0 0.0 0.00 0.00 0.00 56 1017.3
20260508165928 58 0.0 0.0 0.00 0.00 0.00 55 1017.4
20260508163705 60 0.0 0.0 0.00 0.00 0.00 51 1017.4
20260508162705 58 0.0 0.0 0.00 0.00 0.00 59 1017.5
20260508161705 56 0.0 0.0 0.00 0.00 0.00 58 1017.4
20260508160705 56 0.0 0.0 0.00 0.00 0.00 58 1017.4
20260508155705 55 0.0 0.0 0.00 0.00 0.00 59 1017.4
20260508154705 55 0.0 0.0 0.00 0.00 0.00 60 1017.3
20260508153705 54 0.0 0.0 0.00 0.00 0.00 64 1017.4
20260508152705 55 0.0 0.0 0.00 0.00 0.00 65 1017.4
20260508151705 55 0.0 0.0 0.00 0.00 0.00 64 1017.4
20260508150706 55 0.0 0.0 0.00 0.00 0.00 66 1017.5
20260508145705 54 0.0 0.0 0.00 0.00 0.00 64 1017.5
20260508144705 55 0.0 0.0 0.00 0.00 0.00 64 1017.6
20260508143705 55 0.0 0.0 0.00 0.00 0.00 61 1017.6
20260508142705 56 0.0 0.0 0.00 0.00 0.00 60 1017.5
20260508141705 56 0.0 0.0 0.00 0.00 0.00 58 1017.5
20260508140705 60 0.0 0.0 0.00 0.00 0.00 52 1017.5
20260508135705 59 0.0 0.0 0.00 0.00 0.00 48 1017.4
20260508134705 58 0.0 0.0 0.00 0.00 0.00 52 1017.5
20260508133705 58 0.0 0.0 0.00 0.00 0.00 53 1017.5
20260508132705 57 0.0 0.0 0.00 0.00 0.00 52 1017.5
20260508131705 59 0.0 0.0 0.00 0.00 0.00 52 1017.5
20260508130705 60 0.0 0.0 0.00 0.00 0.00 47 1017.5
20260508125705 65 0.0 0.0 0.00 0.00 0.00 44 1017.5
20260508124705 64 0.0 0.0 0.00 0.00 0.00 49 1017.5
20260508123705 62 0.0 0.0 0.00 0.00 0.00 49 1017.5
20260508122705 59 0.0 0.0 0.00 0.00 0.00 55 1017.5
20260508121705 58 0.0 0.0 0.00 0.00 0.00 54 1017.6
20260508115442 57 0.0 0.0 0.00 0.00 0.00 59 1017.6
20260508114441 56 0.0 0.0 0.00 0.00 0.00 60 1017.6
20260508113441 57 0.0 0.0 0.00 0.00 0.00 58 1017.5
20260508112441 55 0.0 0.0 0.00 0.00 0.00 59 1017.6
20260508111442 56 0.0 0.0 0.00 0.00 0.00 61 1017.6
20260508110441 55 0.0 0.0 0.00 0.00 0.00 58 1017.6
20260508104217 56 0.0 0.0 0.00 0.00 0.00 55 1017.7
20260508103217 54 0.0 0.0 0.00 0.00 0.00 59 1017.7
20260508102217 55 0.0 0.0 0.00 0.00 0.00 61 1017.8
20260508101217 55 0.0 0.0 0.00 0.00 0.00 61 1017.9
20260508094954 54 0.0 0.0 0.00 0.00 0.00 65 1017.8
20260508092730 53 0.0 0.0 0.00 0.00 0.00 64 1017.9
20260508091730 53 0.0 0.0 0.00 0.00 0.00 64 1017.9
20260508090730 53 0.0 0.0 0.00 0.00 0.00 65 1017.8
20260508085730 53 0.0 0.0 0.00 0.00 0.00 67 1017.9
20260508084730 51 0.0 0.0 0.00 0.00 0.00 68 1017.9
20260508083730 54 0.0 0.0 0.00 0.00 0.00 65 1017.8
20260508082730 52 0.0 0.0 0.00 0.00 0.00 67 1017.8
20260508081731 53 0.0 0.0 0.00 0.00 0.00 65 1017.8
20260508080506 51 0.0 0.0 0.00 0.00 0.00 68 1017.8
20260508075506 51 0.0 0.0 0.00 0.00 0.00 67 1017.7
20260508074506 52 0.0 0.0 0.00 0.00 0.00 70 1017.7
20260508073506 50 0.0 0.0 0.00 0.00 0.00 75 1017.7
20260508072506 49 0.0 0.0 0.00 0.00 0.00 79 1017.5
20260508071506 48 0.0 0.0 0.00 0.00 0.00 78 1017.6
20260508065242 48 0.0 0.0 0.00 0.00 0.00 79 1017.4
20260508064242 49 0.0 0.0 0.00 0.00 0.00 81 1017.3
20260508063242 48 0.0 0.0 0.00 0.00 0.00 82 1017.3
20260508062242 48 0.0 0.0 0.00 0.00 0.00 83 1017.2